Regional Weather Roundup
Issued by NWS

Home | Current Version | Previous Version | Graphics & Text | Print | Product List | Glossary Off
Versions: 1 2 3 4 5 6 7 8 9 10 11 12 13 14 15 16 17 18 19 20 21 22 23 24 25 26 27 28 29 30 31 32 33 34 35 36 37 38 39 40 41 42 43 44 45 46 47 48 49 50

000
ASUS43 KDTX 140910
RWRMI
MICHIGAN HOURLY REGIONAL WEATHER ROUNDUP
NATIONAL WEATHER SERVICE DETROIT/PONTIAC MI
400 AM EST THU DEC 14 2017

NOTE: "FAIR" INDICATES FEW OR NO CLOUDS BELOW 12,000 FEET WITH NO
SIGNIFICANT WEATHER AND/OR OBSTRUCTION TO VISIBILITY.

MIZ047>049-052>055-059>063-066>070-074>076-081>083-141000-
SOUTHEAST LOWER MICHIGAN

CITY           SKY/WX    TMP DP  RH WIND       PRES   REMARKS
ADRIAN         CLOUDY    19  14  81 N15G23    29.77R WCI   5
ALMA           CLOUDY     9   6  86 NW7       29.84R WCI  -2
ANN ARBOR      CLOUDY    19  14  81 NW13G21   29.75R WCI   6
BAD AXE        MOCLDY    18  13  81 N10G17    29.74R WCI   6
CARO           CLOUDY    15  10  80 NW9       29.77R WCI   3
DETROIT CITY   MOCLDY    21  16  81 NW8       29.75R WCI  11
DETROIT        CLOUDY    22  16  78 N10       29.75R WCI  11
FLINT          FLURRIES  14   9  80 N9        29.78R WCI   2
GROSSE ILE     CLOUDY    23  18  81 N10       29.74R WCI  12
HILLSDALE      CLOUDY    18  12  79 N14       29.76R WCI   4
HOWELL         LGT SNOW  16  13  87 N7        29.77R WCI   7

CITY           SKY/WX    TMP DP  RH WIND       PRES   REMARKS
JACKSON        CLOUDY    16  10  77 NW8       29.79R WCI   5
LAMBERTVILLE   CLOUDY    20  16  83 NW6       29.76R WCI  12
LANSING        MOCLDY    12   7  80 NW7       29.83R WCI   1
LAPEER         LGT SNOW  19  16  86 NW9       29.74R WCI   8
MASON          FLURRIES  16   9  73 NW10      29.80R WCI   3
MONROE         PTCLDY    20  13  77 NW7       29.74R WCI  11
MT. CLEMENS    MOCLDY    18  18 100 NW6       29.72R WCI   9
PONTIAC        CLOUDY    18  15  88 N15       29.72R WCI   4
PORT HOPE        N/A     21  15  78 N21G26    29.73R WCI   5
PORT HURON     LGT SNOW  21  16  79 NW3       29.72R
TRI CITIES     CLEAR      9   5  84 N14       29.82R WCI  -7
MIDLAND        FAIR       9   4  82 NW6       29.83R WCI  -1
TROY           FLURRIES  22  18  84 NW7       29.75R WCI  14
SAGINAW HB     PTCLDY    10   5  79 NW13      29.81R WCI  -5
$$
MIZ043>046-050>051-056>058-064>065-071>073-077>080-141000-
SOUTHWEST LOWER MICHIGAN

CITY           SKY/WX    TMP DP  RH WIND       PRES   REMARKS
BATTLE CREEK   CLEAR     13   8  81 N7        29.83R WCI   3
BENTON HARBOR  PTCLDY    17   8  67 NE7       29.88R WCI   8
BIG RAPIDS     CLOUDY     4   1  88 CALM      29.82R
COLDWATER      CLOUDY    18  13  80 N7        29.81R WCI   9
FREMONT        FAIR       5   3  92 CALM      29.84R
HOLLAND        CLOUDY    11   7  84 CALM      29.87R
GRAND RAPIDS   CLOUDY    11   7  84 N6        29.84R WCI   1
IONIA          FAIR      10   5  79 N8        29.82R WCI  -1
KALAMAZOO      CLEAR     13   8  81 N8        29.84R WCI   2
LUDINGTON      LGT SNOW  16  12  84 CALM      29.85R
MARSHALL       CLOUDY    15   9  78 NW5       29.81R WCI   7
MOUNT PLEASANT CLOUDY     6   0  79 CALM      29.82R
MUSKEGON       CLEAR     10   5  80 N5        29.87R WCI   2
SOUTH HAVEN    CLEAR     15   9  76 NE6       29.87R WCI   6
$$
MIZ016>042-141000-
NORTHERN LOWER MICHIGAN

CITY           SKY/WX    TMP DP  RH WIND       PRES   REMARKS
ALPENA         FLURRIES  13   7  77 NW5       29.80R WCI   5
BEAVER ISLAND  CLOUDY    16  10  76 N7        29.85R WCI   6
BELLAIRE       LGT SNOW   9   8  95 CALM      29.86R
CADILLAC       LGT SNOW   8   4  82 CALM      29.77S
CHARLEVOIX     CLOUDY    18  10  71 N8G18     29.87R WCI   7
FRANKFORT      FLURRIES  23  14  68 N7G16     29.84R WCI  15
GAYLORD        CLOUDY     4  -1  80 N3        29.77S HAZE
GRAYLING       LGT SNOW  -9 -14  80 CALM      29.80R
HARBOR SPRINGS LGT SNOW   6   2  84 CALM      29.84R
HOUGHTON LAKE  CLOUDY     6   1  80 N8        29.79R WCI  -7
MANISTEE       LGT SNOW  14  10  85 CALM      29.86R FOG
OSCODA         FLURRIES  11   6  79 NW7       29.78R WCI   0
PELLSTON       CLOUDY    -7 -11  83 CALM      29.84R
ROGERS CITY    CLOUDY    12   5  73 N10G16    29.82R WCI  -2
TRAVERSE CITY  FLURRIES  16  11  80 VRB3      29.83R
$$
MIZ007>008-015-141000-
EASTERN UPPER MICHIGAN

CITY           SKY/WX    TMP DP  RH WIND       PRES   REMARKS
KINROSS        CLOUDY    -3  -8  79 NE8       29.82S WCI -18
MACKINAC ISLAN LGT SNOW   9   5  82 N3        29.83R
NEWBERRY       FLURRIES   9   8  94 CALM      29.82R
S. S. MARIE    CLOUDY    -5 -12  72 N6        29.83R WCI -18
$$
MIZ004>006-011>014-085-141000-
CENTRAL UPPER MICHIGAN

CITY           SKY/WX    TMP DP  RH WIND       PRES   REMARKS
MANISTIQUE     LGT SNOW   7   3  82 CALM      29.86R
ESCANABA       CLOUDY    13   9  84 NW3       29.89R
MENOMINEE      CLEAR      4   0  83 NW3       29.93R
SAWYER-GWINN   CLOUDY    13   8  83 NW14      29.84R WCI  -2
$$
MIZ001>003-009>011-084-141000-
WESTERN UPPER MICHIGAN

CITY           SKY/WX    TMP DP  RH WIND       PRES   REMARKS
IRON MOUNTAIN  CLOUDY    13   6  74 NW13      29.87R WCI  -2
HOUGHTON       FLURRIES  13   5  70 CALM      29.88R
IRONWOOD       FLURRIES  13   9  84 W6        29.91R WCI   4
$$

ABBREVIATIONS USED IN REMARKS
   TC - TEMPERATURE IN CELSIUS
  WCI - WIND CHILL INDEX
   HX - HEAT INDEX
  VSB - VISIBILITY





USA.gov is the U.S. government's official web portal to all federal, state and local government web resources and services.